Temperature
18 18 18 18 18 18 18 18 18 18 18 18 18 18 18 18 18 18 18 18 18 18 18 18 18 18 18 18 18 18 18 18 18 17 17 17 17 17 17 17 17 17 17
19 18 18 18 18 18 19 18 18 18 18 18 18 18 18 18 18 18 18 18 18 18 18 18 18 18 18 18 18 18 17 17 17 17 17 17 17 17 17 17 17 17 17
19 18 18 18 18 18 18 18 18 18 18 18 18 18 18 18 18 18 18 18 18 18 18 18 18 18 18 18 17 17 17 17 17 17 17 17 17 17 17 17 17 17 17
19 19 19 18 18 18 18 18 18 18 18 18 18 18 18 18 18 18 18 18 18 18 18 18 18 18 18 17 17 17 17 17 17 17 17 17 17 17 17 17 17 17 17
19 19 19 18 18 19 19 18 18 18 18 18 18 18 18 18 18 18 18 18 18 18 18 18 18 17 17 17 17 17 17 17 17 17 17 17 17 17 17 17 17 17 17
19 19 19 19 19 19 19 18 18 18 18 18 18 18 18 18 18 18 18 18 18 18 18 18 18 17 17 17 17 17 17 17 17 17 17 17 17 17 17 17 17 17 17
19 19 19 19 19 18 18 18 18 18 18 18 18 18 18 18 18 18 18 18 18 18 18 18 17 17 17 17 17 17 17 17 17 17 17 17 17 17 17 17 17 17 17
19 19 19 19 18 18 18 18 18 18 18 18 18 18 18 18 18 18 18 18 18 18 18 17 17 17 17 17 17 17 17 17 17 17 17 17 17 17 17 17 17 17 17
19 19 19 19 18 18 18 18 18 18 18 18 18 18 18 18 18 18 18 18 18 17 17 17 17 17 17 17 17 17 17 17 17 17 17 17 17 17 17 17 17 17 17
19 19 19 19 19 18 18 18 18 18 18 18 18 18 18 18 18 18 18 18 17 17 17 17 17 17 17 17 17 17 17 17 17 17 17 17 17 17 17 17 17 17 17
19 19 19 19 19 19 19 18 18 18 18 18 18 18 18 18 18 18 17 17 17 17 17 17 17 17 17 17 17 17 17 17 17 17 17 17 17 17 17 17 17 17 17
19 19 19 19 19 19 19 18 18 18 18 18 18 18 18 18 18 17 17 17 17 17 17 17 17 17 17 17 17 17 17 17 17 17 17 17 17 17 17 17 17 17 17
20 19 19 19 19 19 19 18 18 18 18 18 18 18 18 18 18 17 17 17 17 17 17 17 17 17 17 17 17 17 17 17 17 17 17 17 17 17 17 17 17 17 17
20 19 19 19 19 19 19 19 18 18 18 18 18 18 18 18 18 18 17 17 17 17 17 17 17 17 17 17 17 17 17 17 17 17 17 17 17 17 17 17 17 17 17
20 20 19 19 19 19 19 19 18 18 18 18 18 18 18 18 18 18 17 17 17 17 17 17 17 17 17 17 17 17 17 17 17 17 17 17 17 17 17 17 17 17 17
20 20 20 19 19 19 19 19 18 18 18 18 18 18 18 18 18 18 17 17 17 17 17 17 17 17 17 17 17 17 17 17 17 17 17 17 17 17 17 17 17 17 17
21 20 20 20 19 19 19 19 18 18 18 18 18 18 18 18 18 18 17 17 17 17 17 17 17 17 17 17 17 17 17 17 17 17 17 17 17 17 17 17 17 17 17
21 20 20 20 19 19 19 19 18 18 18 18 18 18 18 18 18 18 18 18 17 17 17 17 17 17 17 17 17 17 17 17 17 17 17 17 17 17 17 17 17 17 17
21 21 20 20 20 19 19 19 18 18 18 18 18 18 18 18 18 18 18 18 17 17 17 17 17 17 18 17 17 17 17 17 17 17 17 17 17 17 17 17 17 17 17
21 21 20 20 20 19 19 19 18 18 18 18 18 18 18 18 18 18 18 18 17 17 17 17 17 17 17 17 17 17 17 17 18 18 18 18 17 17 17 17 17 17 17
21 21 20 20 20 20 19 19 19 19 18 18 18 18 18 18 18 18 18 18 18 17 17 17 17 17 17 17 17 17 18 18 18 18 18 18 18 18 17 17 17 17 17
22 21 21 21 20 20 20 19 19 19 19 18 18 18 18 18 18 18 18 18 18 18 17 17 17 17 17 17 17 17 17 18 18 18 18 18 18 18 17 17 17 17 17
22 22 21 21 20 20 20 19 19 19 19 19 18 18 18 18 18 18 18 18 18 18 18 17 17 17 17 17 17 17 17 17 17 18 18 18 18 18 18 17 17 17 17
23 22 22 21 21 20 20 20 19 19 19 19 19 18 18 18 18 18 18 18 18 18 17 17 17 17 17 17 17 17 17 17 17 17 17 17 17 17 17 17 17 17 17
23 22 22 21 21 21 20 20 20 19 19 19 19 19 18 18 18 18 18 18 18 18 18 17 17 17 17 17 17 17 17 17 17 16 16 17 17 17 17 17 17 17 17
23 23 22 22 21 21 21 20 20 20 19 19 19 19 19 18 18 18 18 18 18 18 18 17 17 17 17 17 17 17 17 17 17 16 16 16 17 17 17 17 17 17 17
Wind_Speed
3 4 8 10 12 13 13 14 15 16 17 17 17 17 17 17 17 16 16 15 15 14 14 14 14 14 14 14 15 16 16 16 17 16 16 16 15 15 15 15 15 13 15
5 6 10 11 12 13 13 14 15 16 16 16 16 16 16 16 16 15 15 14 14 14 14 14 14 14 14 14 16 16 16 16 16 15 15 15 15 15 14 14 13 12 14
6 7 10 11 12 12 13 14 14 15 15 15 15 15 15 15 14 14 14 13 13 13 13 13 14 13 14 14 15 16 15 15 15 15 14 12 13 14 13 13 13 13 13
7 8 9 12 12 12 12 13 14 14 14 13 13 14 14 13 13 13 13 13 12 12 12 13 13 13 14 14 14 14 14 14 14 14 12 11 10 12 13 13 13 12 12
7 7 9 12 12 12 12 12 13 13 13 13 12 12 12 12 12 12 11 11 11 11 11 12 12 13 13 13 13 13 13 13 13 12 10 9 9 12 12 12 12 12 12
6 8 9 11 11 11 12 12 12 12 12 12 11 11 11 11 11 11 10 10 10 10 11 11 12 12 12 12 12 12 11 11 11 10 9 9 9 11 11 11 11 11 11
6 7 9 11 11 11 11 11 11 11 11 11 10 10 10 10 10 10 9 9 9 9 10 10 11 11 11 10 10 10 10 10 10 9 9 9 9 10 11 11 11 11 11
6 6 7 10 10 10 11 10 10 10 10 10 10 9 9 9 9 8 8 8 8 9 9 10 10 9 9 9 9 9 9 9 9 9 9 9 9 10 10 10 10 10 10
5 4 4 6 8 10 10 10 9 9 9 9 9 8 8 8 8 7 7 7 7 8 8 9 9 8 8 8 8 7 7 8 8 8 8 8 10 10 10 10 10 10 10
4 3 3 4 5 6 7 9 8 8 8 8 8 8 7 7 7 6 6 7 6 7 7 8 8 7 7 6 6 6 7 7 7 7 7 9 10 10 10 10 10 10 10
4 2 2 3 4 5 5 7 7 7 7 6 6 7 6 5 5 5 5 6 6 6 7 7 7 6 5 5 5 6 6 6 6 6 6 8 10 11 10 10 10 10 10
7 5 4 4 4 4 4 4 4 4 4 4 4 4 4 4 3 3 4 4 5 6 6 6 6 5 5 4 4 5 4 6 5 5 6 8 10 11 11 11 10 10 11
7 6 5 5 4 4 3 3 3 3 3 3 3 4 4 3 2 2 1 1 2 3 3 3 4 4 4 3 3 3 4 4 5 5 7 9 10 11 11 11 11 11 11
6 7 6 5 4 5 4 3 4 3 3 3 3 4 3 2 1 1 1 1 1 1 2 2 3 3 2 2 3 3 3 4 5 6 7 9 10 11 12 12 12 12 12
8 8 8 7 6 5 4 4 4 4 4 5 4 5 5 3 2 2 2 2 2 2 2 2 2 1 1 2 2 3 4 5 5 6 7 9 11 12 13 13 13 13 13
9 9 8 8 7 6 5 4 4 5 5 5 5 6 7 6 4 3 2 2 3 3 3 3 2 2 1 2 2 3 5 5 6 7 8 9 11 12 13 14 14 14 13
9 9 9 9 7 7 6 6 5 5 6 5 6 8 9 8 7 5 3 3 4 4 4 3 2 2 2 2 2 3 4 5 6 7 8 8 9 12 14 15 15 15 14
8 8 8 9 8 7 6 5 4 5 5 5 6 7 9 10 9 6 4 4 5 5 4 3 2 2 2 2 3 3 3 4 6 7 8 8 9 10 12 14 15 16 16
10 9 8 7 8 8 6 5 4 4 4 5 5 6 8 9 9 7 5 4 5 4 3 3 3 2 3 3 3 3 3 4 5 6 7 9 10 10 11 12 15 16 16
8 8 8 7 7 6 4 3 2 2 2 3 4 5 6 7 8 7 5 5 4 3 3 3 2 2 2 2 3 3 3 3 4 5 7 8 9 11 11 11 11 13 16
7 7 8 8 6 5 3 3 3 2 2 2 3 5 6 7 8 7 4 4 4 4 4 4 2 2 2 1 0 2 2 2 4 4 5 5 7 9 10 11 11 11 11
9 9 8 8 7 6 4 3 3 2 2 2 2 3 5 6 7 7 5 4 4 4 4 4 3 2 2 2 2 0 2 3 2 3 3 4 5 6 8 10 11 12 12
10 10 10 9 8 7 6 3 2 2 1 0 1 2 3 5 6 6 6 5 5 5 4 5 5 5 3 2 3 3 2 3 2 2 2 3 4 4 6 7 9 11 12
11 10 9 8 8 7 6 5 5 4 3 3 2 2 2 3 5 6 5 5 4 4 4 5 5 4 4 3 2 3 3 3 2 2 2 2 3 4 5 5 7 8 10
10 9 9 8 7 7 7 7 6 4 3 2 1 2 1 2 3 4 4 4 4 3 4 4 4 5 4 4 3 3 3 3 3 3 4 3 2 3 4 5 5 6 8
8 8 8 9 8 7 7 7 7 7 5 4 3 3 2 2 2 3 3 3 3 3 4 4 4 5 4 4 4 3 3 3 4 4 5 5 4 3 3 4 4 5 6
Wind_Direction
161 155 136 126 121 117 113 112 112 114 116 118 118 119 121 122 123 124 123 122 121 120 120 121 121 120 119 120 120 121 121 121 120 120 121 120 118 116 114 113 112 112 113
150 150 138 130 125 119 116 115 115 116 115 118 120 121 121 121 123 124 124 124 123 122 120 120 122 122 121 122 123 123 123 123 123 125 122 120 120 118 117 117 117 118 116
131 139 138 132 127 122 120 120 119 117 117 118 120 121 122 122 124 125 125 124 123 122 121 121 123 124 124 125 125 126 127 126 126 123 115 113 120 123 123 122 122 121 119
129 131 136 134 131 127 124 123 121 120 120 120 122 122 123 125 126 126 125 125 124 124 124 124 125 126 126 127 127 128 130 130 127 120 115 118 123 129 128 126 125 125 124
127 135 142 138 135 131 128 127 125 124 124 123 124 126 127 128 128 128 128 128 127 127 127 127 126 127 125 126 128 129 131 131 127 121 119 119 124 134 134 131 129 129 127
128 140 149 142 138 134 133 132 130 128 127 126 126 127 128 130 130 129 130 130 130 131 131 131 130 129 129 129 130 130 129 129 124 124 126 128 132 139 138 138 136 134 132
133 143 153 147 143 139 136 135 135 133 130 130 130 130 129 129 130 130 132 132 133 134 137 138 135 134 134 134 134 134 131 130 129 130 134 138 144 145 144 144 142 139 137
137 145 154 151 146 142 140 140 139 138 136 135 133 132 133 132 132 133 133 135 137 138 139 141 139 139 138 136 136 138 135 136 138 141 146 150 154 154 153 153 150 146 144
131 136 141 149 149 148 147 146 146 144 141 139 137 137 137 136 135 134 135 136 139 141 144 146 144 145 145 144 146 146 142 140 141 148 155 160 162 162 161 162 160 156 157
128 138 144 140 140 145 151 153 151 148 147 146 145 145 143 141 141 137 134 136 141 144 146 147 149 150 151 149 150 150 146 135 140 149 157 166 170 172 170 169 170 168 166
171 170 160 152 148 147 154 161 159 156 154 150 149 149 138 126 131 138 143 144 147 150 146 148 151 147 142 140 146 141 137 141 148 155 165 177 180 182 181 179 179 178 176
192 192 185 178 170 164 168 153 149 144 140 140 136 131 132 128 132 138 144 149 150 151 150 151 149 136 124 124 139 139 140 154 161 170 184 190 192 194 190 187 187 187 185
193 193 191 192 186 180 174 156 153 147 145 149 153 149 146 141 139 124 116 122 123 135 131 129 117 120 127 139 145 152 166 169 179 189 196 200 202 202 200 197 195 194 194
186 196 196 190 192 198 192 181 175 175 179 190 195 184 169 167 179 172 164 175 159 147 134 127 123 131 144 166 179 185 191 194 196 201 205 208 211 209 207 205 203 202 202
194 199 198 192 194 196 195 202 191 196 201 209 214 210 196 193 205 211 203 193 194 192 180 167 158 159 179 204 218 208 211 214 213 211 215 217 218 216 214 212 212 212 209
200 200 197 196 197 193 195 202 208 209 210 211 217 220 212 208 205 207 209 204 212 211 211 200 196 196 221 231 250 231 222 223 221 220 224 226 226 221 219 219 218 219 218
197 195 195 199 195 193 199 207 213 216 211 213 220 222 219 214 206 201 203 210 216 207 205 209 218 210 232 239 251 246 231 225 224 227 227 227 229 229 227 225 225 225 225
187 187 196 201 193 198 201 203 208 213 210 216 219 220 220 216 209 199 202 218 216 203 196 196 206 209 232 240 248 250 233 225 231 232 230 230 228 231 232 231 230 229 229
187 185 188 191 188 195 197 200 204 209 211 216 215 218 222 216 209 199 206 218 208 196 197 210 199 198 221 235 247 249 239 231 231 232 230 232 229 230 231 235 234 233 234
184 183 186 187 187 179 175 177 189 204 217 214 215 219 219 213 207 202 207 211 195 194 212 209 206 208 222 232 258 269 254 241 235 233 233 234 233 231 231 233 236 238 237
177 181 186 188 186 167 163 174 180 203 214 217 220 222 217 214 209 201 211 201 190 202 215 207 196 214 226 175 172 310 298 257 244 239 234 234 234 232 232 232 234 236 241
186 189 191 195 191 184 180 171 169 171 194 212 219 224 219 216 210 208 204 205 200 206 217 211 194 193 215 177 168 212 319 322 291 256 240 235 238 233 235 236 233 234 238
193 194 198 198 195 189 177 147 126 100 71 177 229 231 221 218 215 214 209 201 200 200 216 219 202 196 211 208 190 172 192 248 301 303 261 250 248 240 241 240 236 237 238
202 195 194 191 191 187 172 172 174 186 204 215 209 224 234 220 219 217 211 202 201 199 215 227 214 207 200 219 217 214 211 193 218 295 302 270 261 252 250 246 243 240 240
196 191 191 185 189 185 180 184 183 199 209 201 190 223 232 230 224 217 209 203 204 209 224 228 218 213 207 213 211 207 215 215 216 228 270 283 282 261 254 250 247 246 243
187 188 186 185 194 187 185 186 191 203 202 195 206 217 222 220 228 223 210 206 209 214 227 231 223 220 221 222 221 214 209 211 211 217 244 261 269 269 258 255 250 250 248
Height
1524 1524 1525 1527 1528 1529 1529 1530 1531 1532 1533 1534 1535 1536 1538 1539 1540 1541 1543 1544 1545 1546 1548 1549 1550 1551 1552 1553 1554 1555 1557 1558 1559 1560 1561 1562 1563 1564 1565 1566 1566 1567 1568
1524 1526 1527 1529 1530 1531 1531 1532 1533 1534 1535 1536 1538 1539 1540 1541 1542 1543 1545 1546 1547 1548 1549 1550 1552 1553 1554 1555 1556 1557 1558 1559 1560 1561 1562 1563 1564 1565 1566 1567 1568 1569 1570
1525 1527 1529 1530 1532 1533 1533 1534 1535 1536 1537 1538 1540 1541 1542 1543 1544 1545 1546 1548 1549 1550 1551 1552 1553 1554 1555 1556 1557 1558 1560 1561 1562 1563 1564 1565 1566 1567 1568 1569 1570 1571 1572
1527 1529 1530 1532 1533 1535 1535 1536 1537 1538 1539 1541 1542 1543 1544 1545 1546 1547 1548 1549 1550 1551 1552 1553 1554 1556 1557 1558 1559 1560 1561 1562 1563 1564 1565 1566 1568 1569 1570 1571 1572 1573 1574
1529 1531 1532 1534 1535 1536 1537 1538 1539 1540 1541 1542 1543 1544 1545 1546 1548 1549 1550 1551 1552 1553 1554 1555 1556 1557 1558 1560 1561 1562 1563 1564 1565 1566 1567 1568 1569 1570 1571 1572 1573 1574 1575
1531 1533 1534 1536 1537 1538 1539 1540 1541 1542 1543 1544 1545 1546 1547 1548 1549 1550 1551 1552 1553 1554 1555 1556 1557 1559 1560 1561 1562 1563 1564 1565 1566 1567 1568 1569 1570 1571 1572 1574 1575 1575 1576
1533 1534 1536 1537 1539 1540 1541 1542 1543 1544 1545 1546 1547 1548 1549 1549 1550 1551 1552 1553 1554 1555 1556 1557 1558 1560 1561 1563 1564 1565 1565 1566 1568 1569 1570 1570 1571 1572 1574 1575 1576 1577 1578
1535 1536 1538 1539 1540 1541 1542 1543 1545 1546 1546 1547 1548 1549 1550 1551 1552 1552 1553 1554 1555 1556 1557 1558 1559 1561 1563 1564 1565 1566 1567 1568 1569 1570 1571 1572 1572 1573 1574 1576 1577 1577 1578
1536 1538 1539 1540 1542 1543 1544 1545 1546 1547 1548 1549 1550 1550 1551 1552 1553 1554 1554 1555 1556 1557 1558 1559 1560 1562 1563 1565 1566 1567 1568 1569 1570 1571 1572 1572 1573 1574 1575 1576 1577 1578 1579
1538 1539 1541 1542 1543 1544 1545 1546 1547 1548 1549 1550 1551 1552 1553 1553 1554 1555 1555 1556 1557 1558 1559 1560 1561 1563 1564 1566 1567 1568 1569 1570 1571 1572 1573 1573 1574 1575 1576 1577 1577 1578 1579
1539 1540 1542 1543 1544 1545 1546 1547 1548 1549 1550 1552 1552 1553 1554 1555 1555 1556 1557 1557 1558 1559 1560 1561 1562 1564 1565 1566 1568 1569 1570 1571 1572 1573 1573 1574 1575 1575 1576 1577 1577 1578 1579
1539 1541 1542 1544 1545 1546 1548 1548 1550 1551 1552 1553 1554 1554 1555 1556 1556 1557 1558 1558 1559 1560 1561 1562 1563 1565 1566 1567 1568 1569 1570 1571 1572 1573 1574 1574 1575 1575 1576 1577 1577 1578 1579
1540 1542 1543 1545 1546 1547 1548 1549 1551 1552 1553 1554 1555 1556 1556 1557 1558 1558 1559 1559 1560 1561 1562 1563 1564 1565 1567 1567 1569 1570 1571 1572 1573 1573 1574 1575 1575 1575 1576 1576 1577 1578 1579
1541 1542 1544 1546 1547 1548 1549 1550 1551 1553 1554 1555 1556 1557 1557 1558 1559 1559 1560 1561 1561 1562 1563 1564 1565 1566 1567 1568 1569 1570 1571 1572 1573 1574 1574 1574 1575 1575 1576 1576 1577 1577 1578
1541 1543 1544 1546 1547 1549 1550 1551 1552 1553 1554 1555 1556 1557 1558 1559 1560 1560 1561 1562 1562 1563 1564 1565 1566 1566 1567 1568 1569 1570 1571 1572 1572 1573 1574 1574 1574 1574 1575 1575 1576 1577 1578
1541 1543 1544 1546 1547 1549 1550 1551 1552 1554 1555 1556 1557 1558 1559 1560 1560 1561 1562 1562 1563 1563 1564 1565 1566 1567 1568 1568 1569 1570 1570 1571 1572 1572 1573 1573 1573 1574 1574 1574 1575 1575 1576
1540 1542 1544 1545 1547 1548 1549 1551 1552 1553 1554 1556 1557 1558 1559 1559 1560 1561 1562 1562 1563 1564 1564 1565 1566 1567 1567 1568 1569 1569 1570 1570 1571 1571 1572 1572 1572 1573 1573 1573 1573 1574 1575
1540 1541 1543 1544 1546 1547 1549 1550 1551 1553 1554 1555 1556 1557 1558 1559 1560 1561 1561 1562 1563 1564 1564 1564 1565 1566 1566 1567 1568 1568 1568 1569 1569 1569 1570 1570 1571 1571 1571 1571 1572 1572 1573
1539 1540 1542 1543 1545 1546 1548 1549 1550 1552 1553 1554 1555 1556 1557 1558 1559 1560 1561 1562 1562 1563 1564 1564 1564 1565 1565 1566 1566 1566 1567 1567 1567 1567 1568 1568 1568 1569 1569 1570 1570 1570 1570
1538 1540 1541 1542 1543 1545 1546 1547 1549 1550 1551 1553 1554 1555 1556 1557 1558 1559 1560 1560 1561 1562 1562 1563 1563 1564 1564 1564 1565 1565 1565 1565 1565 1565 1565 1565 1566 1566 1567 1567 1567 1567 1568
1536 1538 1539 1541 1542 1543 1545 1546 1547 1548 1550 1551 1552 1553 1554 1555 1556 1557 1558 1559 1560 1560 1561 1562 1562 1562 1563 1563 1563 1563 1563 1562 1562 1562 1562 1562 1563 1563 1564 1564 1564 1564 1565
1534 1536 1538 1539 1541 1542 1543 1545 1546 1547 1548 1549 1550 1551 1551 1553 1554 1555 1557 1557 1558 1559 1559 1560 1560 1560 1561 1561 1561 1561 1560 1561 1559 1559 1559 1559 1560 1560 1560 1561 1561 1561 1561
1531 1533 1536 1538 1539 1541 1542 1544 1545 1546 1546 1547 1548 1549 1550 1551 1552 1554 1555 1555 1556 1557 1557 1558 1558 1558 1559 1559 1559 1560 1559 1558 1557 1557 1557 1557 1557 1557 1557 1557 1557 1557 1557
1529 1531 1533 1536 1538 1539 1541 1542 1543 1543 1544 1545 1546 1547 1548 1549 1551 1552 1553 1553 1554 1554 1555 1555 1556 1556 1556 1556 1556 1556 1557 1556 1556 1554 1554 1554 1554 1554 1554 1553 1553 1553 1553
1527 1529 1531 1533 1535 1537 1539 1540 1541 1542 1543 1544 1545 1546 1547 1548 1549 1550 1551 1551 1552 1552 1552 1553 1553 1553 1553 1553 1553 1553 1553 1553 1553 1553 1551 1551 1551 1551 1550 1550 1549 1549 1549
1524 1526 1529 1531 1533 1535 1537 1538 1539 1540 1541 1543 1544 1545 1546 1547 1548 1549 1549 1550 1550 1550 1550 1550 1550 1550 1550 1550 1550 1550 1550 1550 1550 1549 1548 1547 1547 1547 1546 1546 1545 1545 1545